Weather in Hastings

United Kingdom     50°52′03″N   0°33′20″E
temp.,
°C
wind,
m/s
gust,
m/s
humid.,
%
clouds,
%
prec.,
mm/h
press.,
hPa
HPBL,
m
14 may, fri
fri1401:00+10ene6986100 0.3 1006329
04:00+9ne6690100 0.6 1006277
07:00+9nne689396 1.1 1007397
10:00+10nne458498 0.1 1009498
13:00+11nnw238096 0.1 1009139
16:00+12wsw347675 0.1 1009179
19:00+11wsw678374 0.2 1008203
22:00+10wsw5686100 0.1 1008149
15 may, sat
sat1501:00+10sw5689100 0.1 1006280
04:00+10ssw6887100 0.3 1004419
07:00+10sw7989100 1.3 1003652
10:00+9s8988100 0.8 1002649
13:00+10ssw578941 1.1 1001547
16:00+11wsw912832 0.2 1001516
19:00+11wsw1013874 0.3 1001474
22:00+10wsw913891 0.0 1002535
16 may, sun
sun1601:00+10wsw91388100 0.2 1002474
04:00+10wsw91186100 0.4 1001478
07:00+10sw91188100 1.3 1001527
10:00+11sw91283100 0.5 1001559
13:00+11sw11148870 2.3 1001604
16:00+11sw1014876 0.7 999612
19:00+11sw12168972 0.9 998694
22:00+11wsw14188958 0.0 999643
17 may, mon
mon1701:00+11wsw11159243 0.1 1000519
04:00+11wsw10138862 0.3 1000439
07:00+10w6988100 0.5 1001307
10:00+11wsw688191 0.1 1002269
13:00+12wsw8108088 0.4 1004315
16:00+12wsw10148370 0.2 1004413
19:00+12w10148352 2.8 1006375
22:00+11w1014865 0.8 1009564
18 may, tue
tue1801:00+10w1014845 0.8 1011685
04:00+10w9138779 0.0 1012694
07:00+10wsw81189100 0.2 1012656
10:00+9wsw9990100 2.7 1012855
13:00+9w688593 4.7 1012542
16:00+10wsw8108143 0.0 1013730
19:00+11wsw9138511 0.1 1013465
22:00+11wsw812880 0.0 1014328